Powrót do katalogu

KOSEN 1

KOSEN-1

AktywnyKrótkofalarstwoSSO
NORAD 49402·PAYLOAD·🇯🇵 Japan

Wystrzelony Nov 9, 2021 z Uchinoura Space Center

Loading…

Następne Przeloty (najbliższe 24 godziny)

TLE

ŚwieżeSource: Space-Track

Epoka: Sep 14, 2026, 08:52 UTC

1 49402U 21102H   26257.36975564  .00005255  00000-0  19518-3 0  9996
2 49402  97.3104 297.8260 0011664 248.4961 111.5035 15.27925970267638

Śledź KOSEN 1 w czasie rzeczywistym z AllMySat

Download on the App Store